Regional Weather Roundup
Issued by NWS Sterling, VA

Home | Current Version | Previous Version | Graphics & Text | Print | Product List | Glossary On
Versions: 1 2 3 4 5 6 7 8 9 10 11 12 13 14 15 16 17 18 19 20 21 22 23 24 25 26 27 28 29 30 31 32 33 34 35 36 37 38 39 40 41 42 43 44 45 46 47 48 49 50
000
ASUS41 KLWX 300410
RWRLWX

REGIONAL WEATHER ROUNDUP
NATIONAL WEATHER SERVICE BALTIMORE MD/WASHINGTON DC
1200 AM EDT THU JUL 30 2015

Note: "FAIR" indicates few or no clouds below 12,000 feet
with no significant weather and/or obstructions to visibility.
 TC=TEMPERATURE CELSIUS

 * =Non NWS site. Station does not report precipitation (e.g. rain,
    snow, etc.), thunder, or fog.

DCZ001-MDZ009-015-VAZ040>042-051-053>054-300500-
WASHINGTON METRO

CITY           SKY/WX    TMP DP  RH WIND       PRES   REMARKS
WASHINGTON NAT MOCLDY    82  74  76 S7        29.95F
DULLES         CLEAR     78  71  79 S7        29.95F
ANDREWS AFB    CLEAR     76  72  88 S8        29.95F
FT BELVOIR     CLEAR     76  73  91 SE3       29.95F
QUANTICO       PTCLDY    82  75  79 S15       29.96F
COLLEGE PARK*  CLEAR     81  72  74 S3        29.95S
LEESBURG*      PTCLDY    79  75  89 SW13      29.97R
MANASSAS*      PTCLDY    75  73  94 CALM      29.95F
GAITHERSBURG*  CLEAR     79  70  73 SE5       30.00S

$$

MDZ006>007-011-014-300500-
BALTIMORE METRO

CITY           SKY/WX    TMP DP  RH WIND       PRES   REMARKS
BWI AIRPORT    PTCLDY    77  74  90 CALM      29.95S
MD SCIENCE CTR   N/A     79  74  84 MISG      29.95S
MARTIN STATE   PTCLDY    81  77  89 S6        29.96S
ANNAPOLIS      CLEAR     81  73  76 S9        29.95S
FORT MEADE*    CLEAR     72  70  94 CALM      29.98S

$$

MDZ012-015-019>023-300500-
MARYLAND EASTERN SHORE

CITY           SKY/WX    TMP DP  RH WIND       PRES   REMARKS
OCEAN CITY     CLEAR     79  72  79 SW8       29.99S
SALISBURY      CLEAR     75  72  90 S8        29.99S
BAY BRIDGE AP*   N/A     81  72  74 S9        29.96S
CAMBRIDGE*     PTCLDY    79  70  73 S6        29.97S
EASTON*        PTCLDY    80  76  86 S8        30.00S

$$

MDZ017>025-300500-
SOUTHERN MARYLAND

CITY           SKY/WX    TMP DP  RH WIND       PRES   REMARKS
PATUXENT RIVER CLEAR     77  72  84 S7        29.97F
ST INIGOES     CLEAR     80  73  79 S9        29.97S
LEONARDTOWN*   CLEAR     77  70  78 CALM      29.99F

$$

MDZ003>005-300500-
NORTH CENTRAL MARYLAND

CITY           SKY/WX    TMP DP  RH WIND       PRES   REMARKS
FREDERICK*     CLEAR     77  73  88 CALM      29.97S
HAGERSTOWN APT CLEAR     80  73  79 S6        29.95S
WESTMINSTER*   MOCLDY    79  73  83 S5        29.97S

$$

MDZ501>502-300500-
WESTERN MARYLAND

CITY           SKY/WX    TMP DP  RH WIND       PRES   REMARKS
OAKLAND*       NOT AVBL
CUMBERLAND*    MOCLDY    77  73  88 CALM      29.99F

$$

VAZ025>031-300500-
SHENANDOAH VALLEY

CITY           SKY/WX    TMP DP  RH WIND       PRES   REMARKS
WINCHESTER*    CLEAR     79  75  89 S5        29.95F
FRONT ROYAL*   FAIR      77  73  88 CALM      29.94F
LURAY*         MOCLDY    79  73  83 S5        29.97S
NEW MARKET*    CLOUDY    76  73  92 W5        29.96R
STAUNTON*      PTCLDY    79  74  83 S5        30.02S
WAYNESBORO*    FAIR      74  73  94 SW3       30.02S

$$

WVZ021-048>050-054>055-300500-
EASTERN WEST VIRGINIA PANHANDLE

CITY           SKY/WX    TMP DP  RH WIND       PRES   REMARKS
MARTINSBURG    CLEAR     75  73  93 CALM      29.95F
PETERSBURG*    CLOUDY   N/A N/A N/A CALM      29.98S

$$

VAZ036>039-050-300500-
CENTRAL FOOTHILLS

CITY           SKY/WX    TMP DP  RH WIND       PRES   REMARKS
CHARLOTTESVILL PTCLDY    78  74  87 S6        29.98S
CULPEPER*      CLEAR     75  73  93 CALM      29.96F
ORANGE*        PTCLDY    77  73  88 CALM      29.99S
GORDONSVILLE*  FAIR      73  73 100 CALM      29.97S
WARRENTON*     FAIR      77  73  88 S3        29.95S

$$

VAZ055>057-300500-
NORTH AND CENTRAL PIEDMONT

CITY           SKY/WX    TMP DP  RH WIND       PRES   REMARKS
FREDERICKSBRG* CLEAR     78  77  96 SE5       29.96S
STAFFORD*      PTCLDY    76  72  88 CALM      30.00S

$$

NCZ024-NYZ072-PAZ021-071-VAZ022-071-300500-
OTHER REGIONAL OBSERVATIONS

CITY           SKY/WX    TMP DP  RH WIND       PRES   REMARKS
NEW YORK CITY  CLEAR     83  70  64 VRB5      29.96R
PHILADELPHIA   PTCLDY    82  73  74 SW9       29.95S
PITTSBURGH     MOCLDY    79  69  71 CALM      29.94F
ROANOKE        CLEAR     75  73  93 W3        30.04S
RICHMOND       PTCLDY    79  74  84 S7        29.98S
RALEIGH        PTCLDY    80  70  71 SE6       29.99F

$$

ANZ530>537-300500-
MARINE OBSERVATIONS

STATION/POSITION TIME  TEMP    WIND        PRES
                       AIR SEA DIR/SP/G
                 (UTC) (F)     (DEG/KT/KT) (MB)
THOMAS PT LIGHT  NOT AVBL
BALT KEY BRIDGE  0300   82                   N/A
COVE POINT       0300   80                   N/A
LEWISETTA        0300   80                   N/A

$$



USA.gov is the U.S. government's official web portal to all federal, state and local government web resources and services.